sat.trackr.live / text

‹ back to catalog

STARLINK-37547

NORAD 68846 · 2026-094H

PAYLOAD ACTIVE UNKNOWN

§ Identity

Operator
Country
US
Launch date
2026-04-26
Launch site
AFWTR
Launch vehicle
Mass (kg)
RCS (m²)

Purposes: comms

External: N2YO · Heavens-Above · Gunter

§ Orbital elements

Epoch: 2026-05-25T04:00:03.998880Z

Period
92.95 min
Inclination
97.2847°
Eccentricity
0.0000718
Mean motion
15.49190380 rev/d
Perigee alt
418.6 km
Apogee alt
419.6 km
Semi-major
6,797.2 km
B*
-2.0615e-4
RAAN
159.8820°
Arg perigee
132.7331°
Mean anomaly
342.3511°
Rev number
567

§ Raw data

STARLINK-375471 68846U 26094H   26145.16671295 -.00011286  00000+0 -20615-3 0  99942 68846  97.2847 159.8820 0000718 132.7331 342.3511 15.49190380  5677

JSON: /api/v1/satellites/68846 · /tle

For live sub-satellite position, see the globe view (requires WebGL).

§ Visibility from observer

Set your observer location to see the next 7 days of passes ≥ 10°. The values pass through the URL so the page stays shareable.

No JS? Fill the form by hand. The geolocation button needs JavaScript.